Location: *
(48.8667°N, 2.3331°E)
Time: 09:33:19
(UTC+00:00)

Cosmos 2061 Rocket - Pass Details

Date: 13 August 2020
Orbit: 966 x 1012 km, 82.9° (Epoch: 23 September)

Event Time Altitude Azimuth Distance (km) Brightness Sun altitude
Exits shadow 21:37:25 35° 143° (SE) 1,515 4.4 -19.8°
Maximum altitude 21:39:40 51° 91° (E) 1,205 4.2 -20.0°
Drops below altitude 10° 21:45:37 10° 18° (NNE) 2,719 6.8 -20.6°
Sets 21:48:12 0° 13° (NNE) 3,672 7.7 -20.8°
